Hourly Data Report for October 08, 2014

All times are specified in Local Standard Time (LST). Add 1 hour to adjust for Daylight Saving Time where and when it is observed.

CHARLOTTETOWN A
PRINCE EDWARD ISLAND

46°17'21.000" N
63°07'09.000" W
48.50 m
8300301
71706
YYG

Download Data

Hourly Data (October 2014)
Hourly Data Report for October 8, 2014
Temp Definition
°C
Dew Point Temp Definition
°C
Rel Hum Definition
%
Wind Dir Definition
10's deg

Wind Spd Definition
km/h
Visibility Definition
km
Stn Press Definition
kPa
Hmdx Definition


Wind Chill Definition


Weather Definition


TIME
00:00 Legend Double Dagger 12.5 10.6 88 16 16 24.1 101.67     LegendNANA
01:00 Legend Double Dagger 12.3 10.9 91 15 16 24.1 101.63     LegendNANA
02:00 Legend Double Dagger 12.4 11.0 91 16 17 24.1 101.58     Cloudy
03:00 Legend Double Dagger 12.4 11.5 94 16 13 24.1 101.52     LegendNANA
04:00 Legend Double Dagger 12.5 11.7 95 16 15 24.1 101.48     LegendNANA
05:00 Legend Double Dagger 12.7 12.1 96 15 17 16.1 101.43     Cloudy
06:00 Legend Double Dagger 12.7 12.1 96 15 17 16.1 101.38     LegendNANA
07:00 Legend Double Dagger 12.8 12.2 96 14 16 24.1 101.30     LegendNANA
08:00 Legend Double Dagger 13.7 12.6 93 14 18 16.1 101.29     Mostly Cloudy
09:00 Legend Double Dagger 15.0 12.9 87 15 29 24.1 101.22     LegendNANA
10:00 Legend Double Dagger 16.1 13.6 85 14 22 24.1 101.11     LegendNANA
11:00 Legend Double Dagger 17.2 12.4 73 16 32 24.1 101.04     Mostly Cloudy
12:00 Legend Double Dagger 17.0 12.8 76 15 27 24.1 100.95     LegendNANA
13:00 Legend Double Dagger 17.9 13.7 76 14 30 24.1 100.76     LegendNANA
14:00 Legend Double Dagger 18.2 14.0 76 14 35 24.1 100.64     Cloudy
15:00 Legend Double Dagger 17.9 14.1 78 14 28 24.1 100.51     LegendNANA
16:00 Legend Double Dagger 17.2 14.0 81 14 25 24.1 100.44     Rain Showers
17:00 Legend Double Dagger 16.9 15.3 90 15 32 24.1 100.31     Rain Showers
18:00 Legend Double Dagger 16.4 15.4 94 15 29 24.1 100.24     LegendNANA
19:00 Legend Double Dagger 16.4 15.3 93 14 32 24.1 100.17     LegendNANA
20:00 Legend Double Dagger 16.2 15.4 95 15 24 24.1 100.12     Cloudy
21:00 Legend Double Dagger 16.5 15.9 96 13 23 19.3 99.96     Rain Showers
22:00 Legend Double Dagger 16.9 15.9 94 16 28 24.1 99.96     Rain Showers
23:00 Legend Double Dagger 15.7 14.4 92 22 18 19.3 99.99     Rain Showers

Notes on Data Quality.

Legend

  • E = Estimated
  • M = Missing
  • NA = Not Available
  • ‡ = Partner data that is not subject to review by the National Climate Archives
Date modified: